星链-35554(STARLINK-35554)

导读 | 豆包AI

STARLINK-35554是美国SpaceX星链星座的卫星,于2025年10月29日发射升空。星链计划旨在构建全球卫星互联网星座,为地面提供高速低延迟网络服务,覆盖偏远、通信基础设施薄弱区域。该卫星延续星链模块化设计,依托批量发射模式推进星座组网,服务全球通信与互联网接入需求。

基本信息
目录编号:
66239
目录名称:
STARLINK-35554
国际标识:
2025-245F
轨道中心:
EARTH
卫星名称:
星链-35554
卫星全名:
星链-35554(STARLINK-35554)
卫星状态:
在轨 (已飞行208 天)
发射日期:
2025-10-29 UTC
国别 :
美国 (US)
星等 :
--
轨道信息
数据来源 国际轨道数据
星历时间: 2026-05-25T10:22:01+0800
8小时前
查看轨道信息
半长轴: 6853.348km
偏心率: 0.0000425
轨道倾角: 53.161°
近地点辐角 75.244°
升交点赤经 289.086°
平近点角 284.861°
近地点: 474.919km
远地点: 475.503km
周期: 94.105分钟
每日圈数: 15.302015
详细信息
固有亮度:
5
最大亮度:
2.5
卫星平台:
Starlink V1.0
覆盖范围:
全球
运营商:
太空探索技术公司
运营商所在国:
美国
制造商(研发单位):
太空探索技术公司
制造商所在国:
美国
使用方式:
暂无
卫星简介
Starlink 计划是 SpaceX 推出的全球卫星互联网项目,通过发射低轨道卫星,为全球尤其是偏远地区提供高速、低延迟的互联网服务。自 2019 年起,Starlink 已部署数千颗卫星,旨在缩小全球数字鸿沟,推动互联网普及。该项目还为军事、航空等行业提供通信支持,带来广泛经济效益。
2D轨道图
3D轨道图
轨道高度分析图
轨道倾角分析图
轨道综合分析图
查看轨道综合分析图